QPF
0.08 0.11 0.11 0.12 0.15 0.15 0.14 0.13 0.12 0.06 0.04 0.05 0.05 0.05 0.08 0.13 0.19 0.21 0.19 0.19 0.19 0.19 0.18 0.16 0.15 0.14 0.13 0.12 0.12 0.09 0.07 0.06 0.05 0.06 0.07 0.07 0.08 0.08
0.07 0.10 0.12 0.13 0.14 0.14 0.13 0.11 0.13 0.12 0.08 0.07 0.07 0.07 0.09 0.12 0.20 0.26 0.26 0.24 0.23 0.22 0.20 0.19 0.18 0.16 0.15 0.14 0.14 0.13 0.10 0.08 0.07 0.06 0.05 0.05 0.05 0.06
0.06 0.07 0.07 0.09 0.10 0.10 0.11 0.12 0.16 0.17 0.13 0.09 0.09 0.10 0.10 0.11 0.13 0.16 0.16 0.15 0.14 0.16 0.16 0.15 0.16 0.15 0.14 0.13 0.13 0.13 0.12 0.10 0.09 0.08 0.07 0.06 0.06 0.06
0.07 0.07 0.05 0.06 0.06 0.07 0.07 0.09 0.14 0.17 0.13 0.09 0.08 0.09 0.08 0.07 0.08 0.12 0.15 0.15 0.15 0.15 0.14 0.14 0.14 0.14 0.14 0.14 0.14 0.14 0.14 0.13 0.11 0.09 0.08 0.08 0.07 0.07
0.07 0.06 0.06 0.07 0.07 0.06 0.07 0.08 0.11 0.13 0.10 0.06 0.05 0.06 0.06 0.09 0.09 0.11 0.14 0.14 0.13 0.13 0.15 0.16 0.18 0.18 0.17 0.16 0.15 0.14 0.13 0.12 0.10 0.10 0.10 0.10 0.10 0.11
0.08 0.08 0.07 0.08 0.08 0.08 0.11 0.13 0.12 0.09 0.07 0.05 0.05 0.04 0.04 0.05 0.06 0.07 0.10 0.10 0.11 0.12 0.13 0.13 0.13 0.13 0.13 0.12 0.11 0.09 0.09 0.09 0.09 0.09 0.09 0.10 0.10 0.10
0.08 0.08 0.06 0.06 0.06 0.06 0.07 0.07 0.05 0.04 0.05 0.05 0.04 0.04 0.03 0.04 0.04 0.06 0.07 0.06 0.07 0.08 0.09 0.10 0.10 0.10 0.10 0.10 0.09 0.07 0.05 0.05 0.05 0.05 0.05 0.05 0.06 0.06
0.07 0.06 0.06 0.06 0.05 0.05 0.05 0.04 0.04 0.04 0.04 0.04 0.04 0.04 0.04 0.05 0.06 0.07 0.08 0.08 0.08 0.08 0.07 0.09 0.10 0.10 0.09 0.09 0.10 0.08 0.07 0.06 0.06 0.05 0.05 0.04 0.04 0.04
0.07 0.07 0.07 0.06 0.05 0.05 0.06 0.06 0.05 0.05 0.04 0.04 0.04 0.04 0.05 0.06 0.07 0.07 0.07 0.07 0.07 0.07 0.06 0.06 0.05 0.05 0.05 0.06 0.06 0.06 0.06 0.06 0.06 0.05 0.05 0.04 0.04 0.04
0.08 0.08 0.09 0.09 0.07 0.07 0.07 0.06 0.05 0.05 0.06 0.06 0.06 0.07 0.08 0.07 0.06 0.05 0.04 0.05 0.06 0.06 0.05 0.05 0.05 0.04 0.04 0.05 0.05 0.05 0.05 0.05 0.04 0.04 0.03 0.03 0.03 0.02
0.06 0.05 0.06 0.07 0.08 0.08 0.07 0.07 0.06 0.07 0.09 0.11 0.10 0.08 0.07 0.05 0.04 0.03 0.03 0.04 0.05 0.06 0.06 0.06 0.05 0.05 0.04 0.04 0.04 0.04 0.03 0.03 0.03 0.03 0.02 0.02 0.02 0.02
0.03 0.03 0.03 0.04 0.04 0.05 0.05 0.06 0.07 0.08 0.08 0.07 0.06 0.05 0.04 0.03 0.03 0.02 0.02 0.03 0.03 0.04 0.03 0.04 0.04 0.03 0.03 0.04 0.03 0.02 0.02 0.02 0.02 0.02 0.01 0.01 0.01 0.01
0.02 0.03 0.03 0.04 0.03 0.03 0.03 0.02 0.03 0.03 0.03 0.03 0.03 0.04 0.05 0.05 0.04 0.03 0.02 0.02 0.02 0.02 0.03 0.03 0.04 0.03 0.03 0.04 0.03 0.02 0.02 0.01 0.01 0.01 0.01 0.01 0.01 0.01
0.02 0.01 0.02 0.03 0.02 0.02 0.01 0.01 0.01 0.01 0.01 0.01 0.02 0.04 0.06 0.06 0.05 0.04 0.03 0.03 0.02 0.02 0.02 0.02 0.02 0.02 0.02 0.03 0.03 0.02 0.01 0.01 0.01 0.01 0.01 0.02 0.01 0.02
0.01 0.01 0.01 0.01 0.01 0.00 0.00 0.00 0.00 0.01 0.00 0.01 0.01 0.02 0.03 0.03 0.03 0.03 0.03 0.02 0.02 0.02 0.02 0.01 0.01 0.01 0.01 0.02 0.02 0.02 0.01 0.01 0.01 0.01 0.01 0.01 0.01 0.01
0.00 0.01 0.01 0.00 0.00 0.00 0.00 0.01 0.01 0.01 0.01 0.02 0.02 0.02 0.02 0.02 0.02 0.01 0.01 0.01 0.01 0.00 0.01 0.01 0.01 0.01 0.01 0.01 0.01 0.01 0.01 0.01 0.00 0.00 0.01 0.01 0.01 0.01
0.00 0.00 0.00 0.00 0.00 0.00 0.01 0.01 0.01 0.01 0.01 0.01 0.01 0.01 0.01 0.01 0.01 0.01 0.01 0.01 0.01 0.01 0.00 0.01 0.01 0.01 0.01 0.01 0.01 0.01 0.00 0.00 0.00 0.00 0.00 0.00 0.00 0.00
0.00 0.00 0.00 0.00 0.00 0.00 0.00 0.00 0.00 0.00 0.00 0.00 0.01 0.01 0.01 0.01 0.01 0.00 0.00 0.01 0.01 0.00 0.00 0.00 0.01 0.01 0.01 0.01 0.01 0.01 0.01 0.01 0.01 0.00 0.00 0.00 0.00 0.00
0.00 0.00 0.00 0.00 0.00 0.00 0.00 0.00 0.00 0.00 0.00 0.00 0.00 0.00 0.00 0.00 0.00 0.00 0.00 0.00 0.00 0.00 0.00 0.00 0.01 0.01 0.02 0.01 0.01 0.01 0.01 0.01 0.01 0.01 0.00 0.01 0.01 0.01
0.01 0.01 0.01 0.01 0.01 0.00 0.00 0.00 0.00 0.00 0.00 0.01 0.01 0.01 0.00 0.00 0.01 0.01 0.00 0.00 0.00 0.00 0.00 0.00 0.01 0.01 0.01 0.01 0.01 0.01 0.01 0.01 0.01 0.01 0.00 0.00 0.01 0.01
0.02 0.02 0.02 0.02 0.02 0.02 0.01 0.01 0.01 0.01 0.01 0.01 0.01 0.01 0.01 0.01 0.01 0.01 0.01 0.01 0.01 0.01 0.01 0.00 0.01 0.01 0.01 0.02 0.03 0.03 0.02 0.02 0.01 0.01 0.01 0.01 0.01 0.02
0.01 0.01 0.01 0.02 0.03 0.04 0.04 0.04 0.03 0.02 0.01 0.01 0.01 0.01 0.01 0.01 0.01 0.01 0.01 0.01 0.01 0.01 0.01 0.01 0.01 0.02 0.02 0.02 0.02 0.02 0.02 0.02 0.02 0.01 0.01 0.01 0.01 0.01
0.01 0.01 0.01 0.01 0.02 0.03 0.04 0.04 0.04 0.03 0.02 0.01 0.01 0.01 0.01 0.01 0.01 0.01 0.01 0.02 0.02 0.02 0.02 0.02 0.02 0.03 0.03 0.02 0.01 0.01 0.02 0.03 0.03 0.02 0.02 0.02 0.01 0.01
MSLP
1013.36 1013.49 1013.70 1013.94 1014.14 1014.26 1014.25 1014.12 1013.87 1013.52 1013.13 1012.72 1012.33 1011.99 1011.71 1011.49 1011.32 1011.19 1011.12 1011.09 1011.12 1011.22 1011.41 1011.68 1012.04 1012.46 1012.94 1013.44 1013.94 1014.42 1014.86 1015.25 1015.61 1015.94 1016.26 1016.57 1016.89 1017.20
1013.26 1013.33 1013.47 1013.64 1013.77 1013.83 1013.77 1013.58 1013.30 1012.93 1012.53 1012.12 1011.75 1011.42 1011.16 1010.95 1010.79 1010.68 1010.61 1010.58 1010.61 1010.72 1010.91 1011.19 1011.57 1012.03 1012.55 1013.11 1013.66 1014.20 1014.71 1015.17 1015.58 1015.97 1016.33 1016.69 1017.04 1017.39
1013.50 1013.51 1013.58 1013.65 1013.69 1013.64 1013.49 1013.23 1012.88 1012.48 1012.05 1011.65 1011.29 1011.00 1010.78 1010.61 1010.50 1010.43 1010.40 1010.41 1010.48 1010.62 1010.84 1011.16 1011.58 1012.07 1012.63 1013.23 1013.83 1014.41 1014.95 1015.44 1015.89 1016.30 1016.69 1017.06 1017.43 1017.80
1014.06 1014.01 1014.00 1013.98 1013.91 1013.75 1013.50 1013.15 1012.73 1012.27 1011.83 1011.42 1011.08 1010.83 1010.65 1010.55 1010.51 1010.51 1010.55 1010.63 1010.76 1010.96 1011.24 1011.61 1012.06 1012.60 1013.18 1013.80 1014.42 1015.01 1015.55 1016.04 1016.49 1016.89 1017.27 1017.63 1017.99 1018.35
1014.86 1014.78 1014.70 1014.60 1014.44 1014.18 1013.83 1013.40 1012.91 1012.40 1011.92 1011.51 1011.19 1010.97 1010.85 1010.81 1010.85 1010.93 1011.05 1011.21 1011.43 1011.70 1012.04 1012.46 1012.96 1013.52 1014.13 1014.75 1015.35 1015.92 1016.44 1016.89 1017.30 1017.66 1017.99 1018.31 1018.64 1018.96
1015.81 1015.70 1015.59 1015.44 1015.21 1014.88 1014.46 1013.96 1013.41 1012.87 1012.37 1011.95 1011.64 1011.45 1011.37 1011.39 1011.48 1011.64 1011.84 1012.08 1012.37 1012.71 1013.12 1013.59 1014.12 1014.70 1015.31 1015.91 1016.49 1017.01 1017.47 1017.86 1018.19 1018.48 1018.75 1019.01 1019.28 1019.55
1016.78 1016.68 1016.55 1016.38 1016.11 1015.75 1015.29 1014.76 1014.19 1013.63 1013.11 1012.69 1012.39 1012.22 1012.17 1012.22 1012.36 1012.57 1012.82 1013.12 1013.47 1013.87 1014.32 1014.82 1015.37 1015.95 1016.54 1017.11 1017.64 1018.10 1018.48 1018.80 1019.05 1019.26 1019.44 1019.63 1019.83 1020.05
1017.69 1017.59 1017.48 1017.30 1017.04 1016.68 1016.23 1015.70 1015.13 1014.58 1014.07 1013.66 1013.37 1013.21 1013.16 1013.23 1013.38 1013.61 1013.89 1014.21 1014.58 1015.00 1015.47 1015.98 1016.53 1017.09 1017.65 1018.18 1018.65 1019.04 1019.35 1019.59 1019.76 1019.90 1020.01 1020.13 1020.27 1020.43
1018.46 1018.38 1018.28 1018.13 1017.90 1017.57 1017.15 1016.66 1016.13 1015.61 1015.14 1014.75 1014.47 1014.31 1014.26 1014.32 1014.46 1014.67 1014.94 1015.25 1015.61 1016.01 1016.46 1016.95 1017.47 1018.00 1018.51 1018.99 1019.41 1019.74 1020.00 1020.17 1020.29 1020.37 1020.43 1020.50 1020.60 1020.72
1019.07 1019.00 1018.93 1018.80 1018.62 1018.34 1017.98 1017.55 1017.09 1016.63 1016.20 1015.85 1015.59 1015.44 1015.39 1015.42 1015.53 1015.70 1015.92 1016.18 1016.49 1016.84 1017.24 1017.67 1018.14 1018.62 1019.08 1019.51 1019.88 1020.18 1020.40 1020.54 1020.63 1020.68 1020.72 1020.78 1020.85 1020.96
1019.54 1019.48 1019.42 1019.33 1019.19 1018.97 1018.68 1018.33 1017.95 1017.56 1017.20 1016.90 1016.68 1016.54 1016.48 1016.49 1016.56 1016.67 1016.82 1017.01 1017.24 1017.51 1017.82 1018.19 1018.58 1019.00 1019.41 1019.79 1020.13 1020.41 1020.61 1020.76 1020.85 1020.91 1020.96 1021.01 1021.10 1021.20
1019.93 1019.87 1019.83 1019.77 1019.67 1019.50 1019.28 1019.01 1018.71 1018.40 1018.12 1017.88 1017.70 1017.58 1017.53 1017.52 1017.54 1017.60 1017.67 1017.78 1017.91 1018.08 1018.31 1018.58 1018.89 1019.24 1019.59 1019.94 1020.26 1020.53 1020.74 1020.90 1021.02 1021.11 1021.18 1021.27 1021.37 1021.48
1020.29 1020.24 1020.21 1020.17 1020.11 1019.99 1019.83 1019.63 1019.40 1019.17 1018.96 1018.78 1018.65 1018.57 1018.52 1018.50 1018.49 1018.49 1018.50 1018.52 1018.56 1018.64 1018.76 1018.94 1019.17 1019.45 1019.75 1020.06 1020.36 1020.63 1020.86 1021.05 1021.20 1021.33 1021.44 1021.56 1021.68 1021.80
1020.70 1020.67 1020.65 1020.64 1020.60 1020.52 1020.40 1020.24 1020.07 1019.90 1019.76 1019.64 1019.55 1019.50 1019.47 1019.44 1019.42 1019.38 1019.33 1019.28 1019.24 1019.23 1019.27 1019.36 1019.52 1019.72 1019.97 1020.25 1020.53 1020.80 1021.04 1021.25 1021.43 1021.59 1021.73 1021.86 1021.99 1022.12
1021.19 1021.19 1021.20 1021.20 1021.18 1021.12 1021.03 1020.90 1020.77 1020.64 1020.54 1020.46 1020.41 1020.38 1020.37 1020.35 1020.30 1020.24 1020.15 1020.05 1019.95 1019.88 1019.84 1019.87 1019.95 1020.10 1020.30 1020.54 1020.79 1021.05 1021.28 1021.50 1021.69 1021.85 1022.00 1022.13 1022.25 1022.36
1021.79 1021.83 1021.88 1021.90 1021.89 1021.84 1021.75 1021.63 1021.51 1021.40 1021.31 1021.25 1021.22 1021.21 1021.20 1021.18 1021.13 1021.05 1020.94 1020.81 1020.67 1020.55 1020.47 1020.44 1020.47 1020.57 1020.72 1020.91 1021.13 1021.35 1021.56 1021.75 1021.92 1022.07 1022.19 1022.29 1022.38 1022.46
1022.48 1022.58 1022.66 1022.71 1022.70 1022.65 1022.55 1022.43 1022.30 1022.18 1022.08 1022.01 1021.98 1021.96 1021.94 1021.91 1021.86 1021.77 1021.64 1021.50 1021.34 1021.20 1021.09 1021.03 1021.02 1021.08 1021.18 1021.32 1021.49 1021.66 1021.82 1021.97 1022.08 1022.18 1022.25 1022.30 1022.33 1022.35
1023.25 1023.40 1023.52 1023.58 1023.58 1023.51 1023.40 1023.25 1023.10 1022.95 1022.82 1022.73 1022.67 1022.62 1022.58 1022.54 1022.46 1022.36 1022.23 1022.08 1021.92 1021.77 1021.65 1021.57 1021.54 1021.56 1021.62 1021.71 1021.82 1021.92 1022.01 1022.08 1022.13 1022.15 1022.14 1022.12 1022.09 1022.05
1024.04 1024.24 1024.38 1024.45 1024.45 1024.37 1024.23 1024.06 1023.87 1023.69 1023.53 1023.40 1023.29 1023.21 1023.13 1023.05 1022.95 1022.83 1022.69 1022.54 1022.38 1022.24 1022.12 1022.03 1021.99 1021.98 1022.00 1022.04 1022.08 1022.11 1022.12 1022.10 1022.06 1021.99 1021.91 1021.81 1021.71 1021.61
1024.81 1025.03 1025.18 1025.25 1025.24 1025.15 1025.00 1024.81 1024.60 1024.39 1024.19 1024.02 1023.87 1023.74 1023.62 1023.49 1023.36 1023.22 1023.06 1022.91 1022.75 1022.61 1022.50 1022.41 1022.35 1022.32 1022.30 1022.29 1022.26 1022.22 1022.15 1022.05 1021.92 1021.77 1021.61 1021.45 1021.29 1021.13
1025.51 1025.72 1025.87 1025.93 1025.92 1025.83 1025.67 1025.48 1025.26 1025.04 1024.82 1024.61 1024.42 1024.24 1024.07 1023.90 1023.73 1023.56 1023.38 1023.22 1023.06 1022.92 1022.81 1022.72 1022.66 1022.60 1022.55 1022.49 1022.41 1022.30 1022.16 1021.98 1021.78 1021.56 1021.34 1021.12 1020.92 1020.73
1026.08 1026.27 1026.40 1026.46 1026.44 1026.36 1026.23 1026.05 1025.84 1025.62 1025.40 1025.18 1024.96 1024.75 1024.54 1024.33 1024.12 1023.91 1023.71 1023.53 1023.36 1023.22 1023.11 1023.01 1022.94 1022.87 1022.79 1022.69 1022.56 1022.40 1022.20 1021.97 1021.71 1021.45 1021.18 1020.93 1020.70 1020.49
1026.50 1026.66 1026.77 1026.82 1026.82 1026.76 1026.65 1026.51 1026.34 1026.15 1025.95 1025.73 1025.50 1025.27 1025.03 1024.78 1024.54 1024.30 1024.07 1023.86 1023.69 1023.54 1023.41 1023.31 1023.23 1023.14 1023.04 1022.91 1022.75 1022.55 1022.31 1022.05 1021.77 1021.48 1021.19 1020.92 1020.68 1020.46
Thickness
5740 5740 5739 5738 5737 5736 5734 5730 5723 5716 5715 5719 5720 5722 5722 5721 5720 5718 5717 5716 5715 5714 5712 5710 5708 5705 5703 5702 5700 5698 5697 5695 5693 5691 5690 5688 5687 5685
5737 5736 5735 5735 5735 5734 5732 5730 5726 5719 5713 5715 5715 5716 5716 5715 5714 5713 5711 5710 5708 5706 5705 5703 5701 5699 5696 5695 5693 5691 5690 5688 5686 5684 5683 5681 5680 5679
5733 5732 5731 5731 5730 5729 5728 5725 5722 5718 5712 5711 5711 5710 5709 5708 5707 5706 5704 5702 5700 5698 5697 5695 5694 5691 5689 5687 5685 5683 5681 5679 5677 5676 5674 5673 5671 5670
5727 5726 5726 5727 5725 5724 5722 5720 5717 5715 5710 5705 5703 5703 5702 5701 5700 5698 5697 5694 5691 5690 5688 5687 5685 5682 5680 5678 5676 5674 5672 5670 5668 5666 5665 5664 5662 5661
5722 5721 5721 5720 5719 5718 5716 5714 5711 5709 5706 5701 5697 5696 5695 5693 5691 5689 5687 5685 5683 5680 5678 5677 5674 5672 5670 5668 5665 5663 5661 5660 5658 5656 5655 5653 5651 5650
5718 5717 5716 5715 5713 5712 5710 5707 5705 5701 5698 5694 5690 5688 5685 5684 5682 5679 5676 5673 5671 5670 5668 5666 5663 5662 5660 5658 5656 5653 5651 5648 5646 5645 5643 5642 5640 5639
5711 5711 5709 5708 5707 5705 5703 5700 5697 5693 5689 5686 5682 5679 5676 5674 5672 5670 5667 5663 5661 5658 5656 5654 5652 5651 5648 5646 5644 5641 5639 5637 5635 5633 5631 5629 5628 5626
5704 5703 5701 5700 5698 5696 5695 5693 5690 5686 5681 5677 5673 5670 5668 5666 5664 5662 5658 5654 5649 5647 5645 5642 5641 5638 5636 5634 5632 5629 5627 5625 5623 5620 5618 5617 5615 5614
5697 5694 5693 5691 5689 5686 5685 5683 5680 5677 5675 5671 5666 5662 5660 5658 5655 5652 5648 5644 5639 5637 5635 5630 5628 5625 5623 5621 5619 5617 5615 5613 5610 5608 5606 5604 5603 5601
5689 5687 5684 5682 5680 5677 5675 5671 5668 5666 5664 5662 5658 5655 5653 5650 5648 5644 5639 5634 5630 5627 5625 5618 5615 5612 5611 5608 5606 5604 5602 5600 5597 5595 5593 5591 5589 5588
5680 5678 5676 5673 5670 5669 5665 5661 5658 5655 5653 5651 5648 5645 5643 5640 5638 5634 5628 5623 5617 5614 5612 5607 5603 5600 5598 5595 5593 5591 5589 5586 5584 5582 5580 5578 5576 5574
5670 5668 5666 5663 5661 5658 5655 5651 5647 5643 5642 5640 5637 5634 5631 5628 5625 5621 5617 5611 5605 5601 5599 5595 5590 5587 5583 5582 5580 5578 5576 5573 5571 5569 5567 5565 5563 5562
5661 5657 5655 5654 5652 5649 5646 5642 5638 5635 5631 5627 5624 5621 5618 5615 5611 5608 5604 5600 5594 5589 5587 5583 5578 5574 5570 5567 5567 5565 5563 5561 5558 5556 5554 5553 5551 5550
5651 5648 5645 5644 5642 5639 5635 5632 5629 5625 5620 5616 5611 5607 5604 5600 5598 5595 5592 5588 5584 5580 5576 5573 5568 5563 5558 5555 5552 5552 5551 5549 5546 5544 5542 5541 5539 5537
5643 5640 5637 5634 5631 5627 5624 5621 5618 5614 5609 5603 5598 5594 5592 5589 5586 5583 5580 5576 5573 5569 5566 5562 5558 5554 5549 5544 5541 5539 5537 5537 5535 5532 5530 5529 5527 5525
5633 5630 5627 5623 5620 5616 5613 5609 5605 5601 5597 5592 5588 5584 5581 5578 5574 5570 5566 5563 5558 5555 5554 5551 5548 5544 5538 5534 5530 5527 5526 5524 5523 5522 5519 5517 5516 5515
5623 5619 5615 5611 5607 5603 5600 5596 5593 5590 5585 5581 5577 5573 5569 5566 5562 5559 5555 5551 5545 5541 5540 5538 5536 5533 5529 5524 5519 5517 5515 5514 5513 5511 5509 5506 5505 5504
5614 5608 5603 5599 5595 5591 5587 5584 5581 5577 5573 5570 5566 5562 5558 5555 5551 5548 5544 5539 5535 5531 5528 5526 5523 5520 5516 5514 5511 5507 5505 5504 5503 5501 5499 5496 5495 5495
5604 5598 5593 5589 5585 5581 5577 5573 5569 5566 5562 5559 5555 5551 5548 5545 5541 5537 5533 5529 5525 5521 5518 5515 5512 5507 5502 5500 5501 5501 5497 5495 5494 5492 5490 5488 5486 5486
5592 5588 5583 5579 5575 5571 5567 5563 5559 5555 5552 5548 5545 5542 5539 5535 5531 5527 5523 5519 5516 5512 5510 5507 5504 5500 5496 5492 5491 5492 5492 5488 5486 5483 5481 5480 5479 5479
5581 5577 5573 5570 5566 5562 5557 5553 5548 5544 5541 5538 5535 5532 5529 5526 5522 5519 5515 5512 5508 5504 5502 5500 5499 5497 5493 5489 5485 5484 5484 5484 5482 5478 5476 5473 5470 5469
5572 5568 5564 5560 5555 5551 5547 5542 5538 5534 5531 5528 5525 5523 5520 5517 5514 5510 5507 5503 5500 5497 5495 5494 5493 5490 5486 5482 5479 5477 5477 5478 5477 5475 5472 5470 5466 5463
5563 5558 5554 5550 5545 5540 5536 5532 5528 5525 5521 5518 5516 5513 5511 5508 5505 5502 5499 5497 5493 5491 5488 5486 5484 5482 5479 5476 5473 5471 5471 5470 5469 5467 5467 5467 5465 5463